FALCON 9 DEB (45239 NORAD) Tracking and Keplerian Element Data

This shows tracking and keplerian element data for the satellite.

Feedback or suggestion? Click here.




ElementValue
Catalog45239
NameFALCON 9 DEB
Epoch Orbit556
Epoch Day81.23270258
Epoch Year2020
RAAN100.4488
Inclination52.9878
Eccentricity0.0012267
Argument of Perigee158.806
Mean Anonmoly201.3497
Mean Motion16.43348304
Decay Rate0.08473663
L11 45239U 20012BP 20081.23270258 .08473663 12269-4 29461-3 0 9994
L22 45239 52.9878 100.4488 0012267 158.8060 201.3497 16.43348304 5563

Live tracking and technical data element details for FALCON 9 DEB (NORAD 45239). FALCON 9 DEB can be tracked NOW for your location showing map with azimuth and elevation plus other details from your city location.

Track the satellite on the map from your city or location and see movement details for azimuth, elevation, latitude, longitude, range, height, and movement on the map or in text.







IsCatalogInMostPopularTable: catalog: 45239, numindb: 5
Update: records affected: 1



GetName: 45239 FALCON 9 DEB

Hit Count: updated at: Tue, 31 Mar 2020 13:14:56 GMT